Location: Kunchanapalle
(16.4623°N, 80.6176°E)
Time: 15:56:55
(UTC+00:00)

Meteor 2-6 Rocket - Pass Details

Date: 13 August 2020
Orbit: 806 x 915 km, 81.3° (Epoch: 17 September)

Event Time Altitude Azimuth Distance (km) Brightness Sun altitude
Rises 14:15:36 0° 1° (N) 3,411 7.6 -17.3°
Reaches altitude 10° 14:18:02 10° 6° (N) 2,491 6.8 -17.8°
Maximum altitude 14:23:36 56° 84° (E) 1,032 4.3 -19.1°
Enters shadow 14:26:40 27° 151° (SSE) 1,634 5.3 -19.8°
